Weather History for KLUX - December, 2013

Change the Weather History Date:

Tuesday, December 10, 2013

  Actual Average (KGSP) Record (KGSP)
Temperature  
Mean Temperature 50 °F 45 °F  
Max Temperature 62 °F 55 °F 79 °F (2007)
Min Temperature 37 °F 35 °F 13 °F (1917)
Degree Days  
Heating Degree Days 16 20  
Month to date heating degree days 190  
Since 1 July heating degree days 743  
Cooling Degree Days 0 0  
Month to date cooling degree days 0  
Year to date cooling degree days 1715  
Moisture  
Dew Point 33 °F    
Average Humidity 54    
Maximum Humidity 82    
Minimum Humidity 39    
Precipitation  
Precipitation 0.05 in 0.14 in 1.71 in (1961)
Month to date precipitation 1.41  
Year to date precipitation 44.49  
Snow  
Snow 0.00 in 0.00 in 1.00 in (1903)
Month to date snowfall 0.0  
Since 1 July snowfall 0.1  
Snow Depth -    
Sea Level Pressure  
Sea Level Pressure 30.09 in    
Wind  
Wind Speed 4 mph (NW)    
Max Wind Speed 15 mph    
Max Gust Speed 29 mph    
Visibility 8 miles    
Events Fog , Rain    
T = Trace of Precipitation, MM = Missing Value Source: NWS Daily Summary

Daily Weather History Graph

Daily Weather History Graph

Search for Another Location

Airport or City:

Trip Planner

Search our weather history database for the weather conditions in past years. The results will help you decide how hot, cold, wet, or windy it might be!

Date:

Astronomy

Dec. 10, 2013 Rise Set
Actual Time 7:23 AM EST 5:17 PM EST
Civil Twilight 6:55 AM EST 5:45 PM EST
Nautical Twilight 6:24 AM EST 6:16 PM EST
Astronomical Twilight 5:53 AM EST 6:47 PM EST
Moon 1:05 PM EST (12/10) 12:55 AM EST (12/10)
Length of Visible Light 10h 49m
Length of Day
9h 53m
First Quarter, 61% of the Moon is Illuminated
Dec 10
First Quarter
Dec 17
Full
Dec 25
Last Quarter
Jan 1
New
Jan 7
First Quarter

Hourly Weather History & Observations

Time (EST) Temp. Windchill Dew Point Humidity Pressure Visibility Wind Dir Wind Speed Gust Speed Precip Events Conditions
12:15 AM 48.2 °F - - N/A% 30.05 in 10.0 mi Calm Calm - N/A   Overcast
12:35 AM 48.2 °F - - N/A% 30.05 in 10.0 mi Calm Calm - N/A   Overcast
12:55 AM 48.2 °F - - N/A% 30.04 in 4.0 mi Calm Calm - N/A   Drizzle
1:15 AM 48.2 °F - - N/A% 30.02 in 3.0 mi Calm Calm - N/A Rain Light Rain
1:35 AM 48.2 °F - - N/A% 30.01 in 4.0 mi Calm Calm - N/A   Haze
1:55 AM 48.2 °F - - N/A% 30.01 in 7.0 mi Calm Calm - N/A   Overcast
2:15 AM 48.2 °F - - N/A% 30.00 in 7.0 mi Calm Calm - N/A   Overcast
2:35 AM 48.2 °F - - N/A% 30.00 in 2.0 mi Calm Calm - N/A   Overcast
2:55 AM 48.2 °F - - N/A% 30.00 in 1.0 mi Calm Calm - N/A   Overcast
3:15 AM 48.2 °F - - N/A% 29.99 in 1.0 mi Calm Calm - N/A   Overcast
3:35 AM 48.2 °F - - N/A% 29.99 in 0.8 mi Calm Calm - N/A   Overcast
3:55 AM 48.2 °F - - N/A% 29.98 in 0.5 mi South 4.6 mph - N/A Fog Fog
4:15 AM 48.2 °F - - N/A% 29.97 in 0.5 mi Calm Calm - N/A Rain Light Rain
4:35 AM 48.2 °F - - N/A% 29.96 in 0.8 mi South 3.5 mph - N/A   Heavy Drizzle
4:55 AM 50.0 °F - - N/A% 29.95 in 2.0 mi SSW 3.5 mph - 0.01 in   Overcast
5:35 AM 50.0 °F - - N/A% 29.94 in 2.0 mi South 5.8 mph - N/A Rain Rain
5:55 AM 50.0 °F - - N/A% 29.94 in 2.0 mi Calm Calm - N/A   Overcast
6:15 AM 50.0 °F - - N/A% 29.93 in 0.8 mi South 4.6 mph - N/A   Light Drizzle
6:35 AM 50.0 °F - - N/A% 29.93 in 0.5 mi South 4.6 mph - N/A Fog Fog
6:55 AM 50.0 °F - - N/A% 29.93 in 0.5 mi South 9.2 mph - N/A Fog Fog
7:15 AM 50.0 °F - - N/A% 30.00 in 1.8 mi WNW 15.0 mph 28.8 mph 0.02 in Rain Light Rain
7:35 AM 50.0 °F - - N/A% 29.96 in 10.0 mi Calm Calm - 0.02 in   Overcast
7:55 AM 50.0 °F - - N/A% 29.95 in 10.0 mi South 4.6 mph - 0.02 in   Overcast
8:15 AM 50.0 °F - - N/A% 29.96 in 7.0 mi SSW 6.9 mph - 0.01 in Rain Rain
8:35 AM 51.8 °F - - N/A% 29.97 in 7.0 mi SW 8.1 mph - 0.02 in Rain Rain
8:55 AM 51.8 °F - - N/A% 29.96 in 10.0 mi SW 10.4 mph 16.1 mph 0.02 in   Light Drizzle
9:15 AM 53.6 °F - - N/A% 29.97 in 10.0 mi WSW 10.4 mph 17.3 mph N/A   Overcast
9:35 AM 53.6 °F - - N/A% 29.99 in 10.0 mi SW 11.5 mph 18.4 mph N/A Rain Light Rain
9:55 AM 53.6 °F - - N/A% 29.99 in 10.0 mi WSW 9.2 mph - N/A   Overcast
10:15 AM 53.6 °F - - N/A% 29.99 in 10.0 mi SW 11.5 mph 19.6 mph N/A   Mostly Cloudy
10:35 AM 55.4 °F - - N/A% 30.00 in 10.0 mi SW 9.2 mph 16.1 mph N/A   Mostly Cloudy
10:55 AM 57.2 °F - - N/A% 30.00 in 10.0 mi SW 10.4 mph 16.1 mph N/A   Scattered Clouds
11:15 AM 59.0 °F - 53.6 °F 82% 30.01 in 10.0 mi WSW 10.4 mph 19.6 mph N/A   Scattered Clouds
11:35 AM 59.0 °F - 53.6 °F 82% 30.02 in 10.0 mi WSW 13.8 mph 21.9 mph N/A   Scattered Clouds
11:55 AM 60.8 °F - 51.8 °F 72% 30.02 in 10.0 mi West 10.4 mph 21.9 mph N/A   Scattered Clouds
12:15 PM 60.8 °F - 50.0 °F 68% 30.03 in 10.0 mi West 11.5 mph 20.7 mph N/A   Scattered Clouds
12:35 PM 60.8 °F - 50.0 °F 68% 30.04 in 10.0 mi West 11.5 mph 18.4 mph N/A   Overcast
12:55 PM 60.8 °F - 48.2 °F 63% 30.04 in 10.0 mi West 9.2 mph 19.6 mph N/A   Mostly Cloudy
1:15 PM 62.6 °F - 48.2 °F 59% 30.05 in 10.0 mi West 12.7 mph 20.7 mph N/A   Mostly Cloudy
1:35 PM 57.2 °F - 50.0 °F 77% 30.06 in 10.0 mi North 10.4 mph 18.4 mph N/A   Overcast
1:55 PM 55.4 °F - 44.6 °F 67% 30.08 in 10.0 mi North 12.7 mph 18.4 mph N/A   Mostly Cloudy
2:15 PM 55.4 °F - 41.0 °F 58% 30.09 in 10.0 mi North 9.2 mph 18.4 mph N/A   Mostly Cloudy
2:35 PM 55.4 °F - 39.2 °F 54% 30.10 in 10.0 mi North 11.5 mph - N/A   Mostly Cloudy
2:55 PM 57.2 °F - 37.4 °F 48% 30.11 in 10.0 mi North 8.1 mph 17.3 mph N/A   Scattered Clouds
3:15 PM 57.2 °F - 35.6 °F 44% 30.12 in 10.0 mi North 9.2 mph 18.4 mph N/A   Clear
3:35 PM 55.4 °F - 33.8 °F 44% 30.13 in 10.0 mi North 8.1 mph - N/A   Clear
3:55 PM 55.4 °F - 32.0 °F 41% 30.15 in 10.0 mi North 10.4 mph 18.4 mph N/A   Clear
4:15 PM 53.6 °F - 30.2 °F 41% 30.16 in 10.0 mi North 8.1 mph 16.1 mph N/A   Clear
4:35 PM 53.6 °F - 30.2 °F 41% 30.18 in 10.0 mi NNE 4.6 mph - N/A   Clear
4:55 PM 51.8 °F - 32.0 °F 47% 30.18 in 10.0 mi Calm Calm - N/A   Clear
5:15 PM 50.0 °F - 32.0 °F 50% 30.19 in 10.0 mi North 3.5 mph - N/A   Clear
5:35 PM 48.2 °F - 32.0 °F 54% 30.20 in 10.0 mi North 3.5 mph - N/A   Clear
6:15 PM 44.6 °F 43.1 °F 32.0 °F 61% 30.22 in 10.0 mi North 3.5 mph - N/A   Clear
6:35 PM 44.6 °F 42.2 °F 32.0 °F 61% 30.23 in 10.0 mi North 4.6 mph - N/A   Clear
6:55 PM 44.6 °F 41.4 °F 30.2 °F 57% 30.24 in 10.0 mi North 5.8 mph - N/A   Clear
7:15 PM 44.6 °F 40.7 °F 28.4 °F 53% 30.26 in 10.0 mi North 6.9 mph - N/A   Clear
7:55 PM 42.8 °F 38.6 °F 26.6 °F 53% 30.27 in 10.0 mi North 6.9 mph - N/A   Clear
8:15 PM 42.8 °F 38.0 °F 26.6 °F 53% 30.29 in 10.0 mi North 8.1 mph - N/A   Clear
8:35 PM 42.8 °F 38.0 °F 23.0 °F 46% 30.29 in 10.0 mi North 8.1 mph - N/A   Clear
8:55 PM 42.8 °F 39.3 °F 21.2 °F 42% 30.29 in 10.0 mi North 5.8 mph - N/A   Clear
9:15 PM 42.8 °F 38.6 °F 19.4 °F 39% 30.29 in 10.0 mi NNE 6.9 mph - N/A   Clear
9:35 PM 41.0 °F 35.8 °F 19.4 °F 42% 30.30 in 10.0 mi North 8.1 mph - N/A   Clear
9:55 PM 41.0 °F 36.4 °F 19.4 °F 42% 30.31 in 10.0 mi NNE 6.9 mph - N/A   Clear
10:15 PM 41.0 °F 34.7 °F 21.2 °F 45% 30.32 in 10.0 mi NNE 10.4 mph - N/A   Clear
10:35 PM 39.2 °F 33.0 °F 21.2 °F 49% 30.33 in 10.0 mi NNE 9.2 mph - N/A   Clear
10:55 PM 39.2 °F 33.6 °F 21.2 °F 49% 30.34 in 10.0 mi NNE 8.1 mph - N/A   Clear
11:15 PM 39.2 °F 33.0 °F 19.4 °F 45% 30.34 in 10.0 mi NNE 9.2 mph - N/A   Clear
11:35 PM 37.4 °F 32.1 °F 19.4 °F 48% 30.34 in 10.0 mi NNE 6.9 mph - N/A   Clear
11:55 PM 37.4 °F 30.8 °F 19.4 °F 48% 30.34 in 10.0 mi NNE 9.2 mph - N/A   Clear